• In Slovakia
  • List of Countries
  • For 7 days
  • Water Temperature
  • Satellite Maps
  • Weather Map
  • Weather Widgets
  • user-avatar
    Login

    Hourly Weather Bratislava

    Today, 21 November, Tuesday

    Time Temperature Precipitation Wind Pressure Humidity
    00:00 +3°C° 0.3 mm 3 mps 749 mmHg 74%
    01:00 +4°C° 0 mm 2 mps 749 mmHg 76%
    02:00 +4°C° 0.4 mm 2 mps 749 mmHg 77%
    03:00 +5°C° 0.4 mm 1 mps 748 mmHg 79%
    04:00 +5°C° 0.4 mm 1 mps 748 mmHg 81%
    05:00 +4°C° 0.5 mm 2 mps 748 mmHg 82%
    06:00 +4°C° 0.5 mm 2 mps 748 mmHg 83%
    07:00 +4°C° 0 mm 1 mps 747 mmHg 84%
    08:00 +5°C° 0.4 mm 1 mps 748 mmHg 84%
    09:00 +4°C° 0.4 mm 2 mps 748 mmHg 83%
    10:00 +4°C° 0.4 mm 2 mps 748 mmHg 83%
    11:00 +5°C° 0.5 mm 2 mps 748 mmHg 84%
    12:00 +4°C° 0.5 mm 3 mps 748 mmHg 84%
    13:00 +5°C° 0.5 mm 3 mps 747 mmHg 84%
    14:00 +5°C° 0.3 mm 3 mps 747 mmHg 85%
    15:00 +5°C° 0.3 mm 3 mps 747 mmHg 85%
    16:00 +5°C° 0.3 mm 3 mps 747 mmHg 85%
    17:00 +5°C° 0.1 mm 3 mps 747 mmHg 85%
    18:00 +7°C° 0.1 mm 3 mps 747 mmHg 85%
    19:00 +7°C° 0.1 mm 3 mps 747 mmHg 85%
    20:00 +7°C° 0.3 mm 3 mps 747 mmHg 86%
    21:00 +7°C° 0.3 mm 3 mps 747 mmHg 87%
    22:00 +7°C° 0.3 mm 3 mps 747 mmHg 88%
    23:00 +7°C° 0.5 mm 3 mps 747 mmHg 88%

    Tomorrow, 22 November, Wednesday

    Time Temperature Precipitation Wind Pressure Humidity
    00:00 +7°C° 0.5 mm 3 mps 747 mmHg 88%
    01:00 +7°C° 0.5 mm 3 mps 747 mmHg 88%
    02:00 +7°C° 0 mm 3 mps 747 mmHg 86%
    03:00 +5°C° 0 mm 3 mps 747 mmHg 85%
    04:00 +5°C° 0 mm 3 mps 747 mmHg 83%
    05:00 +5°C° 0 mm 3 mps 747 mmHg 82%
    06:00 +5°C° 0 mm 3 mps 747 mmHg 82%
    07:00 +5°C° 0 mm 2 mps 747 mmHg 81%
    08:00 +7°C° 0 mm 2 mps 747 mmHg 77%
    09:00 +8°C° 0 mm 2 mps 748 mmHg 72%
    10:00 +9°C° 0 mm 2 mps 748 mmHg 68%
    11:00 +10°C° 0 mm 2 mps 748 mmHg 65%
    12:00 +12°C° 0 mm 2 mps 748 mmHg 61%
    13:00 +13°C° 0 mm 2 mps 747 mmHg 58%
    14:00 +12°C° 0 mm 2 mps 747 mmHg 64%
    15:00 +10°C° 0 mm 2 mps 747 mmHg 69%
    16:00 +9°C° 0 mm 2 mps 747 mmHg 74%
    17:00 +8°C° 0 mm 2 mps 748 mmHg 77%
    18:00 +9°C° 0 mm 1 mps 748 mmHg 79%
    19:00 +8°C° 0 mm 1 mps 748 mmHg 81%
    20:00 +8°C° 0 mm 1 mps 748 mmHg 82%
    21:00 +8°C° 0 mm 1 mps 748 mmHg 82%
    22:00 +7°C° 0 mm 1 mps 748 mmHg 82%
    23:00 +7°C° 0 mm 1 mps 748 mmHg 83%

    Day after tomorrow, 23 November, Thursday

    Time Temperature Precipitation Wind Pressure Humidity
    00:00 +7°C° 0 mm 1 mps 748 mmHg 83%
    01:00 +6°C° 0 mm 1 mps 748 mmHg 84%
    02:00 +6°C° 0 mm 1 mps 748 mmHg 85%
    03:00 +5°C° 0 mm 2 mps 748 mmHg 87%
    04:00 +5°C° 0 mm 2 mps 748 mmHg 88%
    05:00 +4°C° 0 mm 2 mps 748 mmHg 89%
    06:00 +4°C° 0 mm 2 mps 748 mmHg 90%
    07:00 +4°C° 0 mm 2 mps 748 mmHg 92%
    08:00 +5°C° 0 mm 2 mps 748 mmHg 89%
    09:00 +6°C° 0 mm 2 mps 749 mmHg 85%
    10:00 +7°C° 0 mm 2 mps 749 mmHg 82%
    11:00 +8°C° 0 mm 2 mps 749 mmHg 80%
    12:00 +9°C° 0 mm 2 mps 749 mmHg 78%
    13:00 +9°C° 0 mm 2 mps 749 mmHg 76%
    14:00 +9°C° 0 mm 2 mps 750 mmHg 80%
    15:00 +8°C° 0 mm 2 mps 750 mmHg 84%
    16:00 +8°C° 0 mm 2 mps 750 mmHg 88%
    17:00 +7°C° 0 mm 2 mps 751 mmHg 89%
    18:00 +8°C° 0 mm 1 mps 751 mmHg 91%
    19:00 +7°C° 0 mm 1 mps 752 mmHg 92%
    20:00 +7°C° 0 mm 1 mps 752 mmHg 93%
    21:00 +7°C° 0 mm 1 mps 752 mmHg 93%
    22:00 +6°C° 0 mm 1 mps 752 mmHg 93%
    23:00 +6°C° 0 mm 1 mps 753 mmHg 93%

    24 November, Friday

    Time Temperature Precipitation Wind Pressure Humidity
    00:00 +6°C° 0 mm 1 mps 753 mmHg 93%
    01:00 +6°C° 0 mm 1 mps 753 mmHg 94%
    02:00 +6°C° 0 mm 1 mps 753 mmHg 94%
    03:00 +6°C° 0 mm 1 mps 753 mmHg 94%
    04:00 +6°C° 0 mm 1 mps 753 mmHg 94%
    05:00 +6°C° 0 mm 1 mps 753 mmHg 94%
    06:00 +6°C° 0 mm 1 mps 753 mmHg 94%
    07:00 +6°C° 0 mm 1 mps 753 mmHg 94%
    08:00 +7°C° 0 mm 1 mps 754 mmHg 92%
    09:00 +8°C° 0 mm 1 mps 754 mmHg 90%
    10:00 +7°C° 0 mm 2 mps 754 mmHg 88%
    11:00 +8°C° 0 mm 2 mps 753 mmHg 86%
    12:00 +9°C° 0 mm 2 mps 753 mmHg 84%
    13:00 +9°C° 0 mm 2 mps 753 mmHg 82%
    14:00 +9°C° 0 mm 2 mps 753 mmHg 84%
    15:00 +8°C° 0 mm 3 mps 753 mmHg 87%
    16:00 +8°C° 0 mm 3 mps 753 mmHg 89%
    17:00 +7°C° 0 mm 3 mps 753 mmHg 90%
    18:00 +7°C° 0 mm 3 mps 753 mmHg 91%
    19:00 +5°C° 0 mm 3 mps 754 mmHg 92%
    20:00 +5°C° 0 mm 3 mps 754 mmHg 92%
    21:00 +5°C° 0 mm 3 mps 754 mmHg 93%
    22:00 +4°C° 0 mm 3 mps 754 mmHg 93%
    23:00 +4°C° 0 mm 3 mps 754 mmHg 93%

    25 November, Saturday

    Time Temperature Precipitation Wind Pressure Humidity
    00:00 +4°C° 0 mm 4 mps 754 mmHg 93%
    01:00 +4°C° 0 mm 4 mps 753 mmHg 94%
    02:00 +4°C° 0 mm 4 mps 753 mmHg 94%
    03:00 +4°C° 0 mm 4 mps 753 mmHg 94%
    04:00 +4°C° 0 mm 4 mps 753 mmHg 94%
    05:00 +4°C° 0 mm 4 mps 753 mmHg 94%
    06:00 +4°C° 0 mm 4 mps 753 mmHg 93%
    07:00 +4°C° 0 mm 4 mps 753 mmHg 93%
    08:00 +5°C° 0 mm 5 mps 752 mmHg 90%
    09:00 +6°C° 0 mm 5 mps 752 mmHg 87%
    10:00 +5°C° 0 mm 6 mps 752 mmHg 84%
    11:00 +7°C° 0 mm 6 mps 751 mmHg 81%
    12:00 +8°C° 0 mm 6 mps 751 mmHg 78%
    13:00 +9°C° 0 mm 6 mps 750 mmHg 75%
    14:00 +9°C° 0 mm 6 mps 750 mmHg 77%
    15:00 +9°C° 0 mm 6 mps 750 mmHg 78%
    16:00 +8°C° 0 mm 5 mps 749 mmHg 80%
    17:00 +8°C° 0 mm 5 mps 750 mmHg 82%
    18:00 +8°C° 0 mm 4 mps 750 mmHg 83%
    19:00 +8°C° 0 mm 4 mps 750 mmHg 85%
    20:00 +8°C° 0 mm 3 mps 751 mmHg 86%
    21:00 +8°C° 0 mm 3 mps 751 mmHg 87%
    22:00 +7°C° 0 mm 3 mps 752 mmHg 88%
    23:00 +7°C° 0 mm 3 mps 752 mmHg 87%

    26 November, Sunday

    Time Temperature Precipitation Wind Pressure Humidity
    00:00 +7°C° 0 mm 3 mps 752 mmHg 86%
    01:00 +7°C° 0 mm 3 mps 753 mmHg 86%
    02:00 +5°C° 0 mm 3 mps 753 mmHg 84%
    03:00 +5°C° 0 mm 3 mps 753 mmHg 83%
    04:00 +6°C° 0 mm 2 mps 753 mmHg 81%
    05:00 +6°C° 0 mm 2 mps 753 mmHg 81%
    06:00 +6°C° 0 mm 2 mps 753 mmHg 80%
    07:00 +7°C° 0 mm 1 mps 754 mmHg 80%
    08:00 +7°C° 0.1 mm 1 mps 754 mmHg 79%
    09:00 +7°C° 0.1 mm 1 mps 754 mmHg 79%
    10:00 +8°C° 0.1 mm 1 mps 754 mmHg 79%
    11:00 +8°C° 0.4 mm 1 mps 753 mmHg 80%
    12:00 +6°C° 0.4 mm 2 mps 753 mmHg 81%
    13:00 +6°C° 0.4 mm 2 mps 753 mmHg 82%
    14:00 +6°C° 1 mm 2 mps 753 mmHg 84%
    15:00 +6°C° 1 mm 2 mps 753 mmHg 85%
    16:00 +4°C° 1 mm 3 mps 753 mmHg 87%
    17:00 +4°C° 0.5 mm 3 mps 754 mmHg 87%
    18:00 +4°C° 0.5 mm 3 mps 754 mmHg 87%
    19:00 +4°C° 0.5 mm 3 mps 754 mmHg 86%
    20:00 +4°C° 0 mm 3 mps 755 mmHg 82%
    21:00 +4°C° 0 mm 4 mps 755 mmHg 79%
    22:00 +4°C° 0 mm 4 mps 755 mmHg 75%
    23:00 +4°C° 0 mm 4 mps 755 mmHg 73%
    Show more